Vertical_Velocity
-2 -1 -0 1 -1 3 2 -2 -4 1 0 -3 1 3 1 2 3 1 4 4 1 -4
1 1 1 1 2 1 -3 -0 -0 -1 3 1 2 -0 -3 1 4 -5 -0 8 3 -1
-0 0 1 1 -1 -1 -0 -0 1 0 -2 0 -1 2 -5 -2 4 -5 4 3 -2 6
0 -0 -2 -2 -0 1 3 -0 1 -2 1 0 2 3 -3 1 2 -4 2 4 -1 5
1 1 -1 -1 -1 0 -0 -1 0 2 2 3 5 5 -1 -2 -2 -4 -1 7 -1 4
-1 3 2 1 3 3 -0 2 1 -4 -1 1 0 2 6 -2 -4 -4 -1 1 -3 5
3 0 -0 0 -1 0 3 1 2 3 1 2 3 4 5 -0 -3 -4 0 4 1 1
-2 1 -1 -2 -3 1 -0 1 2 4 7 4 1 6 7 -1 -5 -4 0 4 3 1
-4 -1 -0 -2 -3 -1 -2 -1 0 3 -0 5 5 9 14 1 -6 4 3 1 6 -1
-3 -2 -3 -2 0 3 4 3 4 3 0 2 5 7 9 7 -5 -4 5 0 -2 -0
1 -2 3 1 -2 -3 -4 -2 -2 1 2 0 5 4 5 -3 -2 -5 2 4 0 -4
-1 -3 -2 -2 -0 1 0 1 1 -0 0 -5 2 0 5 -2 -2 -6 2 3 -1 -3
-1 -1 -0 -3 -1 -2 -4 -4 -3 -1 -2 -1 -3 4 7 2 -7 -7 -3 1 -1 -1
3 1 -0 0 1 -1 0 -1 -1 -2 1 1 1 6 6 2 -9 -12 -5 -7 -3 12
Height
5753 5749 5746 5742 5737 5733 5730 5727 5723 5719 5715 5710 5706 5702 5697 5692 5689 5684 5680 5675 5671 5667
5740 5736 5732 5728 5724 5720 5716 5712 5708 5703 5699 5696 5691 5686 5681 5677 5674 5669 5664 5661 5656 5652
5725 5720 5716 5712 5709 5705 5700 5696 5692 5688 5684 5681 5676 5671 5666 5661 5658 5652 5650 5644 5639 5637
5709 5705 5701 5697 5693 5690 5685 5681 5678 5673 5669 5665 5660 5655 5650 5646 5642 5638 5634 5628 5624 5621
5695 5692 5688 5682 5678 5674 5670 5665 5661 5656 5652 5648 5644 5638 5632 5628 5625 5621 5617 5613 5606 5605
5680 5676 5671 5666 5661 5656 5653 5649 5644 5639 5633 5628 5623 5618 5612 5607 5603 5600 5598 5595 5591 5589
5663 5659 5654 5649 5645 5640 5635 5631 5627 5621 5616 5610 5605 5599 5595 5589 5584 5581 5578 5575 5572 5570
5648 5643 5638 5632 5627 5622 5618 5613 5607 5602 5598 5592 5587 5581 5575 5568 5563 5560 5556 5553 5551 5550
5629 5624 5618 5614 5609 5605 5600 5595 5589 5583 5578 5573 5566 5561 5553 5544 5539 5538 5534 5533 5533 5533
5609 5604 5598 5593 5588 5583 5578 5573 5567 5562 5556 5551 5545 5539 5532 5525 5517 5517 5516 5516 5516 5516
5587 5582 5577 5571 5566 5561 5557 5552 5547 5542 5537 5531 5526 5520 5513 5504 5500 5500 5499 5499 5497 5496
5565 5560 5555 5550 5546 5541 5535 5531 5525 5520 5514 5509 5505 5499 5492 5484 5481 5480 5481 5481 5482 5480
5544 5538 5533 5528 5523 5519 5512 5509 5504 5498 5492 5485 5482 5478 5472 5463 5460 5461 5461 5464 5465 5465
5523 5517 5511 5506 5502 5496 5491 5485 5480 5473 5469 5463 5459 5456 5451 5445 5442 5440 5442 5445 5449 5448